Погода в Лутне

Россия / Брянская область     53°26′58″N   33°05′32″E
В апреле 2022 года жителям России запретили посещать сайт meteo.paraplan.net по решению Генеральной прокуратуры. Аудитория сайта уменьшилась в 10 раз. Владельцы сайта не видят смысла в поддержке погодного сервера в таких условиях. Сайт будет закрыт в октябре.
темп.,
°C
ветер,
м/с
пор.,
м/с
влажн.,
%
обл.,
%
осадки,
мм/ч
давл.,
гПа
погр.,
м
4 октября, вт
вт400:00+4ююз61197100 0.3 9971131
03:00+4ююз51197100 0.5 999916
06:00+4ююз5992100 0.1 1001960
09:00+4ююз5996100 0.1 10021064
12:00+5ююз4894100 0.2 10051054
15:00+6ююз4795100 1.3 10061056
18:00+6юз3796100 0.6 10081041
21:00+6зюз3796100 1.7 1009485
5 октября, ср
ср500:00+6юз3897100 0.8 1010637
03:00+6з3896100 1.4 1011838
06:00+6зсз489496 0.6 1013991
09:00+6з499167 1.4 1015781
12:00+7з489082 0.2 1017697
15:00+8зсз488683 0.5 1019837
18:00+8зюз3992100 0.2 1019569
21:00+8з4996100 0.9 1020514
6 октября, чт
чт600:00+8юз399781 0.7 1020399
03:00+8зюз3897100 0.7 1020304
06:00+8юз269876 0.0 1020153
09:00+9юз2796100 0.0 1020238
12:00+11юз36869 0.0 1020360
15:00+15зюз46714 0.0 1019796
18:00+11юз38872 0.0 1019172
21:00+10юз3119477 0.0 1020276
7 октября, пт
пт700:00+10зюз3119695 0.0 1020289
03:00+10з3119742 0.0 1022400
06:00+9зсз3109625 0.0 1023403
09:00+9зсз3109022 0.0 1025408
12:00+13сз46680 0.0 1027733
15:00+14зсз35644 0.0 1026958
18:00+11з22850 0.0 102725
21:00+9з22930 0.0 102723
8 октября, сб
сб800:00+8зюз22940 0.0 102815
03:00+7ююз22951 0.0 102736
06:00+6ююз23975 0.0 102664
09:00+8ююз25875 0.0 1026193
12:00+13ююз46656 0.0 1024680
15:00+15ююз47590 0.0 1021968
18:00+11ю387999 0.0 1020188
21:00+9ююз31282100 0.0 1020314